GW4221 Weather Reports


time (UTC)temp
F
wind
direction
speed
knots
gust
knots
rain 1hr
in
rain 24hr
in
rain mn
in
humidity
%
barometer
mb
20260504151013 69 194 0.0 1.7 0.00 0.00 0.00 43 1018.3
20260504150512 69 198 0.0 3.5 0.00 0.00 0.00 43 1018.2
20260504141007 64 200 0.0 0.0 0.00 0.00 0.00 52 1018.3
20260504140507 63 199 0.0 0.9 0.00 0.00 0.00 53 1018.4
20260504130510 54 248 0.0 0.0 0.00 0.00 0.00 79 1018.5
20260504110507 42 248 0.0 0.0 0.00 0.00 0.00 91 1018.1
20260504100510 41 248 0.0 0.0 0.00 0.00 0.00 90 1017.9
20260504082008 44 248 0.0 0.0 0.00 0.00 0.00 87 1017.8
20260504081507 44 248 0.0 0.0 0.00 0.00 0.00 87 1017.8
20260504081002 44 248 0.0 0.0 0.00 0.00 0.00 87 1017.8
20260504080503 44 248 0.0 0.0 0.00 0.00 0.00 86 1017.9
20260504050509 48 248 0.0 0.0 0.00 0.00 0.00 80 1018.4
20260504050017 48 248 0.0 0.0 0.00 0.00 0.00 80 1018.3
20260504045507 48 248 0.0 0.0 0.00 0.00 0.00 78 1018.3
20260504045007 48 248 0.0 0.0 0.00 0.00 0.00 78 1018.3
20260504044520 49 248 0.0 0.0 0.00 0.00 0.00 78 1018.2
20260504044007 49 248 0.0 0.0 0.00 0.00 0.00 77 1018.2
20260504043506 49 248 0.0 0.0 0.00 0.00 0.00 77 1018.2
20260504043006 49 248 0.0 0.0 0.00 0.00 0.00 76 1018.3
20260504042504 49 248 0.0 0.0 0.00 0.00 0.00 75 1018.3
20260504042008 50 248 0.0 0.0 0.00 0.00 0.00 75 1018.3
20260504041514 50 248 0.0 0.0 0.00 0.00 0.00 75 1018.3
20260504041007 50 248 0.0 0.0 0.00 0.00 0.00 74 1018.4
20260504040509 50 248 0.0 0.0 0.00 0.00 0.00 73 1018.3
20260504040024 50 248 0.0 0.0 0.00 0.00 0.00 73 1018.4
20260504035506 50 248 0.0 0.0 0.00 0.00 0.00 73 1018.4
20260504035009 50 248 0.0 0.0 0.00 0.00 0.00 73 1018.4
20260504034519 50 248 0.0 0.0 0.00 0.00 0.00 73 1018.4
20260504034010 50 248 0.0 0.0 0.00 0.00 0.00 73 1018.3
20260504033511 50 248 0.0 0.0 0.00 0.00 0.00 73 1018.4
20260504033021 50 248 0.0 0.0 0.00 0.00 0.00 73 1018.3
20260504032509 50 248 0.0 0.0 0.00 0.00 0.00 73 1018.3
20260504032010 51 248 0.0 0.0 0.00 0.00 0.00 71 1018.3
20260504031521 51 248 0.0 0.0 0.00 0.00 0.00 71 1018.3
20260504031008 51 248 0.0 0.0 0.00 0.00 0.00 71 1018.4
20260504030511 51 248 0.0 0.0 0.00 0.00 0.00 70 1018.4
20260504030015 51 248 0.0 0.0 0.00 0.00 0.00 70 1018.3
20260504025512 52 248 0.0 0.0 0.00 0.00 0.00 69 1018.3
20260504025007 52 248 0.0 0.0 0.00 0.00 0.00 69 1018.3
20260504024518 52 248 0.0 0.0 0.00 0.00 0.00 68 1018.3
20260504024008 52 248 0.0 0.0 0.00 0.00 0.00 67 1018.3
20260504023508 53 248 0.0 0.0 0.00 0.00 0.00 66 1018.3
20260504023026 53 248 0.0 0.0 0.00 0.00 0.00 67 1018.1
20260504022507 53 248 0.0 0.0 0.00 0.00 0.00 66 1018.1
20260504022006 54 248 0.0 0.0 0.00 0.00 0.00 66 1018.1
20260504021524 54 248 0.0 0.0 0.00 0.00 0.00 64 1018.0
20260504021007 54 248 0.0 0.0 0.00 0.00 0.00 62 1018.0
20260504020507 54 248 0.0 0.0 0.00 0.00 0.00 61 1017.9
20260504020026 54 248 0.0 0.0 0.00 0.00 0.00 61 1017.8
20260504015510 55 248 0.0 0.0 0.00 0.00 0.00 60 1017.8
20260504015005 55 248 0.0 0.0 0.00 0.00 0.00 61 1017.8
20260504014517 55 248 0.0 0.0 0.00 0.00 0.00 61 1017.7
20260504014007 55 248 0.0 0.0 0.00 0.00 0.00 59 1017.7
20260504013510 56 248 0.0 0.0 0.00 0.00 0.00 58 1017.7
20260504013021 56 248 0.0 0.0 0.00 0.00 0.00 58 1017.7
20260504012510 56 248 0.0 0.0 0.00 0.00 0.00 57 1017.6
20260504012010 57 248 0.0 0.0 0.00 0.00 0.00 56 1017.5
20260504011525 57 248 0.0 0.0 0.00 0.00 0.00 55 1017.5
20260504011012 58 248 0.0 0.0 0.00 0.00 0.00 55 1017.5
20260504010506 58 248 0.0 0.0 0.00 0.00 0.00 55 1017.4
20260504010026 59 248 0.0 0.0 0.00 0.00 0.00 53 1017.3
20260504005508 59 248 0.0 0.0 0.00 0.00 0.00 52 1017.2
20260504005011 60 248 0.0 0.0 0.00 0.00 0.00 50 1017.2
20260504004524 60 248 0.0 0.0 0.00 0.00 0.00 49 1017.2
20260504004008 61 248 0.0 0.0 0.00 0.00 0.00 47 1017.2
20260504003508 61 248 0.0 0.0 0.00 0.00 0.00 47 1017.2
20260504003015 62 248 0.0 0.0 0.00 0.00 0.00 45 1017.2
20260504002508 62 248 0.0 0.0 0.00 0.00 0.00 45 1017.1
20260504002014 63 248 0.0 0.0 0.00 0.00 0.00 43 1017.0
20260504001520 63 248 0.0 0.0 0.00 0.00 0.00 43 1017.0
20260504001008 63 252 0.0 0.0 0.00 0.00 0.00 43 1016.9
20260504000507 63 252 0.0 0.0 0.00 0.00 0.00 43 1017.0
20260504000023 64 252 0.0 0.0 0.00 0.00 0.00 42 1016.9
20260503235509 64 252 0.0 0.0 0.00 0.00 0.00 41 1016.9
20260503235008 64 252 0.0 0.0 0.00 0.00 0.00 42 1016.8
20260503234525 65 252 0.0 0.0 0.00 0.00 0.00 40 1016.8
20260503234009 65 252 0.0 0.0 0.00 0.00 0.00 40 1016.8
20260503233506 65 254 0.0 0.0 0.00 0.00 0.00 39 1016.8
20260503233013 65 255 0.0 0.0 0.00 0.00 0.00 39 1016.7
20260503232507 66 255 0.0 0.0 0.00 0.00 0.00 38 1016.8
20260503232005 66 258 0.0 0.9 0.00 0.00 0.00 38 1016.9
20260503231518 66 258 0.0 0.9 0.00 0.00 0.00 38 1016.9
20260503231007 66 256 0.0 0.9 0.00 0.00 0.00 37 1016.9
20260503230510 66 256 0.0 0.9 0.00 0.00 0.00 38 1016.9
20260503230004 66 260 0.0 3.5 0.00 0.00 0.00 39 1017.0
20260503225505 66 279 0.0 5.2 0.00 0.00 0.00 38 1017.0
20260503225005 66 357 0.9 5.2 0.00 0.00 0.00 37 1017.0
20260503224512 66 290 0.0 0.9 0.00 0.00 0.00 38 1017.1
20260503224003 67 300 0.0 0.9 0.00 0.00 0.00 38 1017.1
20260503223508 67 3 0.0 0.9 0.00 0.00 0.00 36 1017.0
20260503223014 67 256 0.0 0.9 0.00 0.00 0.00 34 1017.0
20260503222507 67 250 0.0 3.5 0.00 0.00 0.00 34 1017.0
20260503222009 67 302 0.0 3.5 0.00 0.00 0.00 36 1017.1
20260503221516 67 261 0.0 1.7 0.00 0.00 0.00 33 1017.0
20260503221011 67 295 0.0 0.9 0.00 0.00 0.00 33 1017.0
20260503220512 67 239 0.0 0.9 0.00 0.00 0.00 33 1017.0
20260503220026 67 248 0.0 0.9 0.00 0.00 0.00 32 1017.0
20260503215507 67 288 0.0 1.7 0.00 0.00 0.00 32 1017.0
20260503215012 67 164 0.0 1.7 0.00 0.00 0.00 33 1017.1
20260503214526 67 288 0.0 1.7 0.00 0.00 0.00 34 1017.0
20260503214003 68 313 0.0 1.7 0.00 0.00 0.00 34 1017.1
20260503213506 68 113 0.0 0.9 0.00 0.00 0.00 34 1017.1
20260503213006 68 234 0.0 2.6 0.00 0.00 0.00 36 1017.2
20260503212507 67 195 0.0 2.6 0.00 0.00 0.00 34 1017.2
20260503212005 67 341 0.0 3.5 0.00 0.00 0.00 35 1017.1
20260503211514 68 280 0.0 3.5 0.00 0.00 0.00 34 1017.1
20260503211006 67 148 0.0 6.1 0.00 0.00 0.00 34 1017.1
20260503210510 67 280 0.0 6.1 0.00 0.00 0.00 33 1017.2
20260503210020 67 353 0.0 2.6 0.00 0.00 0.00 34 1017.3
20260503205507 67 158 0.0 1.7 0.00 0.00 0.00 34 1017.3
20260503205010 67 222 0.0 0.9 0.00 0.00 0.00 33 1017.4
20260503204524 67 146 0.0 1.7 0.00 0.00 0.00 32 1017.5
20260503204007 67 139 0.0 1.7 0.00 0.00 0.00 34 1017.6
20260503203507 67 211 0.0 2.6 0.00 0.00 0.00 35 1017.6
20260503203026 67 211 0.0 2.6 0.00 0.00 0.00 34 1017.6
20260503202503 67 138 0.0 1.7 0.00 0.00 0.00 37 1017.7
20260503202008 67 206 0.0 4.3 0.00 0.00 0.00 38 1017.9
20260503201513 67 194 0.0 4.3 0.00 0.00 0.00 38 1017.9
20260503201007 67 229 0.9 4.3 0.00 0.00 0.00 36 1018.0
20260503200507 67 312 0.0 4.3 0.00 0.00 0.00 39 1018.1
20260503200017 67 288 0.9 4.3 0.00 0.00 0.00 37 1018.1
20260503195509 67 283 0.0 2.6 0.00 0.00 0.00 39 1018.2
20260503195010 68 307 0.9 2.6 0.00 0.00 0.00 38 1018.2
20260503194521 68 212 0.0 3.5 0.00 0.00 0.00 39 1018.3
20260503194007 68 153 0.0 3.5 0.00 0.00 0.00 38 1018.4
20260503193507 68 110 0.0 2.6 0.00 0.00 0.00 37 1018.5
20260503193023 68 264 0.0 2.6 0.00 0.00 0.00 37 1018.5
20260503192507 68 117 0.0 6.1 0.00 0.00 0.00 36 1018.6
20260503192014 68 221 0.0 6.1 0.00 0.00 0.00 34 1018.7
20260503191535 69 360 0.0 2.6 0.00 0.00 0.00 33 1018.8
20260503191011 68 20 0.0 1.7 0.00 0.00 0.00 34 1018.8
20260503190506 68 280 0.0 0.9 0.00 0.00 0.00 35 1019.0
20260503190012 68 262 0.0 1.7 0.00 0.00 0.00 35 1019.1
20260503185504 67 305 0.0 2.6 0.00 0.00 0.00 37 1019.0
20260503185008 67 311 1.7 2.6 0.00 0.00 0.00 36 1019.1
20260503184519 67 325 0.0 2.6 0.00 0.00 0.00 36 1019.1
20260503184007 67 293 0.0 1.7 0.00 0.00 0.00 37 1019.2
20260503183511 67 293 0.0 3.5 0.00 0.00 0.00 36 1019.3
20260503183021 67 345 0.9 3.5 0.00 0.00 0.00 37 1019.3
20260503182507 67 286 0.0 2.6 0.00 0.00 0.00 36 1019.4
20260503182010 67 262 0.0 2.6 0.00 0.00 0.00 35 1019.5
20260503181526 67 49 0.0 7.0 0.00 0.00 0.00 40 1019.5
20260503181011 67 289 0.9 7.0 0.00 0.00 0.00 38 1019.6
20260503180515 68 193 0.0 2.6 0.00 0.00 0.00 36 1019.6
20260503180037 68 345 0.0 2.6 0.00 0.00 0.00 38 1019.5
20260503175510 68 152 0.0 1.7 0.00 0.00 0.00 37 1019.5
20260503175007 67 196 0.0 1.7 0.00 0.00 0.00 39 1019.6
20260503174513 67 206 0.0 1.7 0.00 0.00 0.00 40 1019.7
20260503174010 66 219 0.0 1.7 0.00 0.00 0.00 38 1019.7
20260503173512 66 281 0.0 1.7 0.00 0.00 0.00 38 1019.7
20260503173020 66 250 0.0 1.7 0.00 0.00 0.00 37 1019.7
20260503172510 66 131 0.0 4.3 0.00 0.00 0.00 38 1019.8
20260503172010 66 204 0.0 4.3 0.00 0.00 0.00 43 1019.9
20260503171526 65 347 0.0 0.9 0.00 0.00 0.00 41 1019.9
20260503171009 65 304 0.0 3.5 0.00 0.00 0.00 42 1020.1
20260503170508 64 304 1.7 3.5 0.00 0.00 0.00 38 1020.2